San Antonio, TX

3:02 PM CDT on May 23, 2017 (GMT -0500)
San Antonio International

Weather History for KSAT - November, 2013

Change the Weather History Date:

Monday, November 25, 2013

  Actual Average Record
Temperature  
Mean Temperature 41 °F 58 °F  
Max Temperature 45 °F 69 °F 86 °F (1942)
Min Temperature 36 °F 47 °F 25 °F (1950)
Degree Days  
Heating Degree Days 24 8  
Month to date heating degree days 139 131  
Since 1 July heating degree days 150 164  
Cooling Degree Days 0 1  
Month to date cooling degree days 73 57  
Year to date cooling degree days 3506 3112  
Moisture  
Dew Point 36 °F    
Average Humidity 84    
Maximum Humidity 92    
Minimum Humidity 76    
Precipitation  
Precipitation 0.37 in 0.06 in 1.18 in (1980)
Month to date precipitation 1.50 1.97  
Year to date precipitation 31.45 30.05  
Snow  
Snow 0.00 in - - ()
Month to date snowfall 0.0  
Since 1 July snowfall 0.0  
Since 1 September snowfall 0.0  
Snow Depth 0.00 in    
Sea Level Pressure  
Sea Level Pressure 30.17 in    
Wind  
Wind Speed 8 mph (North)    
Max Wind Speed 20 mph    
Max Gust Speed 24 mph    
Visibility 8 miles    
Events Rain    
T = Trace of Precipitation, MM = Missing Value Source: NWS Daily Summary

Daily Weather History Graph

Daily Weather History Graph

Search for Another Location

Airport or City:

Trip Planner

Search our weather history database for the weather conditions in past years. The results will help you decide how hot, cold, wet, or windy it might be!

Date:

Astronomy

Nov. 25, 2013 Rise Set
Actual Time 7:06 AM CST 5:35 PM CST
Civil Twilight 6:40 AM CST 6:00 PM CST
Nautical Twilight 6:11 AM CST 6:30 PM CST
Astronomical Twilight 5:43 AM CST 6:58 PM CST
Moon No Moon Rise 12:41 PM CST (11/25)
Length of Visible Light 11h 20m
Length of Day
10h 28m
Waning Gibbous, 51% of the Moon is Illuminated
Nov 25
Waning Gibbous
Nov 25
Last Quarter
Dec 2
New
Dec 9
First Quarter
Dec 17
Full

Hourly Weather History & Observations

Time (CST) Temp. Windchill Dew Point Humidity Pressure Visibility Wind Dir Wind Speed Gust Speed Precip Events Conditions
12:21 AM 37.4 °F 32.1 °F 33.8 °F 87% 30.30 in 8.0 mi NNE 6.9 mph - 0.01 in Rain Light Rain
12:48 AM 37.4 °F 32.1 °F 33.8 °F 87% 30.27 in 8.0 mi NNE 6.9 mph - 0.01 in   Overcast
12:51 AM 37.0 °F 32.4 °F 34.0 °F 89% 30.26 in 8.0 mi NNE 5.8 mph - 0.01 in   Overcast
1:22 AM 37.4 °F 33.8 °F 33.8 °F 87% 30.28 in 10.0 mi North 4.6 mph - N/A   Overcast
1:47 AM 37.4 °F 31.4 °F 33.8 °F 87% 30.28 in 8.0 mi NNW 8.1 mph - 0.00 in   Overcast
1:51 AM 37.0 °F 31.0 °F 34.0 °F 89% 30.28 in 8.0 mi NW 8.1 mph - 0.00 in Rain Light Rain
2:51 AM 37.0 °F 32.4 °F 35.1 °F 93% 30.25 in 3.0 mi NNW 5.8 mph - 0.00 in   Light Drizzle
3:51 AM 37.0 °F 34.5 °F 34.0 °F 89% 30.23 in 10.0 mi North 3.5 mph - 0.04 in Rain Light Rain
4:27 AM 37.4 °F 33.8 °F 35.6 °F 93% 30.21 in 4.0 mi NE 4.6 mph - 0.04 in Rain Light Rain
4:38 AM 37.4 °F 31.4 °F 33.8 °F 87% 30.21 in 3.0 mi NNE 8.1 mph - 0.07 in Rain Rain
4:51 AM 37.0 °F 31.6 °F 34.0 °F 89% 30.19 in 6.0 mi NNE 6.9 mph - 0.09 in Rain Light Rain
5:25 AM 37.4 °F 32.8 °F 35.6 °F 93% 30.20 in 10.0 mi ENE 5.8 mph - 0.01 in Rain Light Rain
5:51 AM 37.0 °F 31.6 °F 35.1 °F 93% 30.20 in 5.0 mi NNW 6.9 mph - 0.01 in Rain Light Rain
5:55 AM 37.4 °F 32.1 °F 35.6 °F 93% 30.21 in 4.0 mi NNW 6.9 mph - 0.00 in Rain Light Rain
6:51 AM 37.0 °F 31.6 °F 35.1 °F 93% 30.18 in 3.0 mi NNE 6.9 mph - 0.10 in Rain Heavy Rain
6:58 AM 37.4 °F 33.8 °F 35.6 °F 93% 30.20 in 3.0 mi North 4.6 mph - 0.05 in Rain Rain
7:51 AM 37.9 °F 35.5 °F 35.1 °F 89% 30.19 in 5.0 mi NNE 3.5 mph - 0.09 in Rain Light Rain
8:13 AM 37.4 °F 33.8 °F 35.6 °F 93% 30.19 in 5.0 mi ENE 4.6 mph - 0.02 in Rain Light Rain
8:47 AM 37.4 °F 32.8 °F 35.6 °F 93% 30.19 in 7.0 mi ENE 5.8 mph - 0.02 in   Light Drizzle
8:51 AM 37.9 °F 34.4 °F 36.0 °F 93% 30.18 in 7.0 mi NNE 4.6 mph - 0.02 in   Light Drizzle
9:51 AM 39.0 °F 34.8 °F 36.0 °F 89% 30.19 in 4.0 mi NNE 5.8 mph - 0.01 in Rain Light Rain
10:24 AM 39.2 °F 35.0 °F 37.4 °F 93% 30.20 in 2.0 mi NNE 5.8 mph - 0.00 in Rain Light Rain
10:47 AM 39.2 °F 35.0 °F 37.4 °F 93% 30.20 in 4.0 mi North 5.8 mph - 0.00 in Rain Light Rain
10:51 AM 39.9 °F 35.8 °F 37.0 °F 89% 30.18 in 5.0 mi North 5.8 mph - 0.00 in   Light Drizzle
11:51 AM 41.0 °F 35.2 °F 37.9 °F 89% 30.14 in 10.0 mi North 9.2 mph - 0.00 in   Overcast
12:25 PM 42.8 °F 37.5 °F 37.4 °F 81% 30.13 in 10.0 mi North 9.2 mph - N/A   Overcast
12:51 PM 42.1 °F 36.6 °F 37.9 °F 85% 30.11 in 10.0 mi North 9.2 mph - 0.00 in Rain Light Rain
1:51 PM 42.1 °F 38.4 °F 37.9 °F 85% 30.08 in 10.0 mi NNE 5.8 mph - 0.01 in   Overcast
2:51 PM 44.1 °F 38.6 °F 39.0 °F 82% 30.06 in 10.0 mi North 10.4 mph - N/A   Overcast
3:17 PM 44.6 °F 39.7 °F 39.2 °F 81% 30.07 in 10.0 mi NNE 9.2 mph - N/A   Overcast
3:51 PM 45.0 °F 39.7 °F 39.0 °F 80% 30.06 in 10.0 mi North 10.4 mph - N/A   Overcast
4:14 PM 44.6 °F 39.2 °F 39.2 °F 81% 30.08 in 10.0 mi North 10.4 mph - N/A   Overcast
4:51 PM 44.1 °F 39.5 °F 37.9 °F 79% 30.08 in 10.0 mi North 8.1 mph - N/A   Overcast
5:39 PM 44.6 °F 40.7 °F 37.4 °F 76% 30.11 in 10.0 mi North 6.9 mph - N/A   Overcast
5:51 PM 44.1 °F 40.8 °F 37.9 °F 79% 30.11 in 10.0 mi NNW 5.8 mph - N/A   Overcast
6:51 PM 43.0 °F 38.2 °F 37.9 °F 82% 30.08 in 10.0 mi NNE 8.1 mph - 0.00 in Rain Light Rain
7:09 PM 42.8 °F 37.5 °F 37.4 °F 81% 30.11 in 10.0 mi North 9.2 mph - 0.00 in   Overcast
7:51 PM 43.0 °F 36.0 °F 37.9 °F 82% 30.08 in 10.0 mi North 13.8 mph - 0.00 in   Overcast
8:51 PM 43.0 °F 37.2 °F 37.0 °F 80% 30.14 in 10.0 mi North 10.4 mph - N/A   Overcast
9:51 PM 43.0 °F 37.7 °F 37.0 °F 80% 30.11 in 10.0 mi North 9.2 mph - 0.00 in   Overcast
10:51 PM 43.0 °F 36.4 °F 36.0 °F 76% 30.14 in 10.0 mi North 12.7 mph 17.3 mph N/A   Overcast
11:51 PM 43.0 °F 39.5 °F 36.0 °F 76% 30.16 in 10.0 mi North 5.8 mph - N/A   Overcast